Date String (YYYY-MM-DD hh:mm:ss) UTC,Instrument flags,absolute air pressure of the measurement (hPa),sample flow rate (lpm),inlet stack bypass flow (lpm),air temperature of the measurement (°C),ambient temperature measured by the external sensor (°C),aerosol sample conditioner tube jacket temperature (°C),OPC LED temperature (°C),internal box temperature (°C),relative humidity of the measurement (%),span deviation,mass concentration of particles derived from Lorenz-Mie calculation of OPC scattering (μg/m³),mass concentration of particles derived from Lorenz-Mie calculation of OPC scattering (μg/m³),mass concentration of particles derived from Lorenz-Mie calculation of OPC scattering (μg/m³)
DateTimeUTC,F1_M11,P_M11,Q1_M11,Q2_M11,T1_M11,T2_M11,T3_M11,T4_M11,T5_M11,U1_M11,ZSPAN_M11,X0_M11,X2_M11,X1_M11
2023-10-21 12:00:00,SystemResetWarning,0829.7,4.99,000.00,028.9,027.4,000.0,037.4,030.5,10.2,0000.0,0004.85,0001.43,0000.91
2023-10-21 12:01:00,SystemResetWarning,0829.7,5.00,000.00,028.9,027.4,000.0,037.4,030.5,10.2,0000.0,0003.25,0001.40,0000.91
2023-10-21 12:02:00,SystemResetWarning,0829.7,5.00,000.00,028.9,027.4,000.0,037.4,030.5,10.1,0000.0,0002.88,0001.40,0000.92
2023-10-21 12:03:00,SystemResetWarning,0829.7,5.00,000.00,028.9,027.4,000.0,037.4,030.5,10.1,0000.0,0003.66,0001.41,0000.92
2023-10-21 12:04:00,SystemResetWarning,0829.7,5.00,000.00,028.9,027.4,000.0,037.4,030.5,10.0,0000.0,0004.34,0001.42,0000.93
2023-10-21 12:05:00,SystemResetWarning,0829.8,5.00,000.00,028.9,027.4,000.0,037.4,030.5,10.0,0000.0,0005.51,0001.43,0000.93
2023-10-21 12:06:00,SystemResetWarning,0829.8,5.01,000.00,028.9,027.4,000.0,037.4,030.5,10.0,0000.0,0005.53,0001.44,0000.93
2023-10-21 12:07:00,SystemResetWarning,0829.8,5.01,000.00,028.9,027.4,000.0,037.4,030.5,9.9,0000.0,0005.95,0001.46,0000.93
2023-10-21 12:08:00,SystemResetWarning,0829.7,5.00,000.00,028.9,027.4,000.0,037.4,030.5,10.0,0000.0,0006.37,0001.50,0000.94
2023-10-21 12:09:00,SystemResetWarning,0829.7,5.01,000.00,028.9,027.4,000.0,037.4,030.5,10.0,0000.0,0006.39,0001.52,0000.94
2023-10-21 12:10:00,SystemResetWarning,0829.7,5.00,000.00,028.9,027.4,000.0,037.4,030.5,10.0,0000.0,0006.43,0001.53,0000.95
2023-10-21 12:11:00,SystemResetWarning,0829.7,5.00,000.00,028.9,027.4,000.0,037.4,030.5,10.0,0000.0,0006.47,0001.53,0000.94
2023-10-21 12:12:00,SystemResetWarning,0829.7,5.00,000.00,028.9,027.4,000.0,037.4,030.5,10.0,0000.0,0007.01,0001.54,0000.94
2023-10-21 12:13:00,SystemResetWarning,0829.7,5.00,000.00,028.9,027.3,000.0,037.4,030.5,10.0,0000.0,0007.17,0001.57,0000.93
2023-10-21 12:14:00,SystemResetWarning,0829.7,5.00,000.00,028.9,027.3,000.0,037.4,030.5,9.9,0000.0,0006.52,0001.58,0000.94
2023-10-21 12:15:00,SystemResetWarning,0829.7,4.99,000.00,028.9,027.4,000.0,037.4,030.5,9.9,0000.0,0006.02,0001.56,0000.93
2023-10-21 12:16:00,SystemResetWarning,0829.7,5.01,000.00,028.9,027.3,000.0,037.4,030.5,9.9,0000.0,0004.94,0001.56,0000.93
2023-10-21 12:17:00,SystemResetWarning,0829.7,5.00,000.00,028.9,027.3,000.0,037.4,030.5,9.9,0000.0,0005.69,0001.58,0000.94
2023-10-21 12:18:00,SystemResetWarning,0829.7,5.01,000.00,028.9,027.3,000.0,037.4,030.5,9.9,0000.0,0005.70,0001.65,0000.94
2023-10-21 12:19:00,SystemResetWarning,0829.7,5.00,000.00,028.9,027.3,000.0,037.4,030.5,9.9,0000.0,0005.29,0001.63,0000.95
2023-10-21 12:20:00,SystemResetWarning,0829.7,5.01,000.00,028.9,027.3,000.0,037.4,030.5,9.9,0000.0,0005.53,0001.69,0000.96
2023-10-21 12:21:00,SystemResetWarning,0829.7,5.00,000.00,028.9,027.3,000.0,037.4,030.5,9.9,0000.0,0005.57,0001.73,0000.96
2023-10-21 12:22:00,SystemResetWarning,0829.7,5.00,000.00,028.9,027.2,000.0,037.4,030.5,9.9,0000.0,0005.61,0001.76,0000.97
2023-10-21 12:23:00,SystemResetWarning,0829.7,5.00,000.00,028.9,027.2,000.0,037.4,030.4,9.9,0000.0,0006.05,0001.86,0000.99
2023-10-21 12:24:00,SystemResetWarning,0829.7,5.00,000.00,028.9,027.2,000.0,037.3,030.4,9.9,0000.0,0006.30,0001.96,0001.02
2023-10-21 12:25:00,SystemResetWarning,0829.7,5.00,000.00,028.8,027.2,000.0,037.3,030.4,9.9,0000.0,0006.38,0002.01,0001.03
2023-10-21 12:26:00,SystemResetWarning,0829.7,5.00,000.00,028.8,027.2,000.0,037.3,030.4,9.8,0000.0,0007.25,0002.09,0001.06
2023-10-21 12:27:00,SystemResetWarning,0829.7,5.00,000.00,028.8,027.2,000.0,037.3,030.4,9.8,0000.0,0007.48,0002.15,0001.09
2023-10-21 12:28:00,SystemResetWarning,0829.7,5.00,000.00,028.8,027.2,000.0,037.3,030.4,9.8,0000.0,0007.14,0002.16,0001.10
2023-10-21 12:29:00,SystemResetWarning,0829.7,5.00,000.00,028.8,027.2,000.0,037.3,030.4,9.8,0000.0,0006.93,0002.10,0001.11
2023-10-21 12:30:00,SystemResetWarning,0829.7,5.00,000.00,028.8,027.2,000.0,037.3,030.4,9.7,0000.0,0006.83,0002.07,0001.12
2023-10-21 12:31:00,SystemResetWarning,0829.7,5.00,000.00,028.8,027.2,000.0,037.3,030.4,9.8,0000.0,0007.33,0002.05,0001.13
2023-10-21 12:32:00,SystemResetWarning,0829.7,5.00,000.00,028.8,027.2,000.0,037.3,030.4,9.8,0000.0,0007.73,0002.03,0001.13
2023-10-21 12:33:00,SystemResetWarning,0829.7,5.00,000.00,028.8,027.2,000.0,037.3,030.4,9.7,0000.0,0007.88,0002.07,0001.14
2023-10-21 12:34:00,SystemResetWarning,0829.7,5.00,000.00,028.8,027.2,000.0,037.3,030.4,9.7,0000.0,0007.59,0002.00,0001.13
2023-10-21 12:35:00,SystemResetWarning,0829.6,5.00,000.00,028.8,027.2,000.0,037.3,030.4,9.8,0000.0,0007.31,0001.93,0001.11
2023-10-21 12:36:00,SystemResetWarning,0829.7,4.99,000.00,028.8,027.2,000.0,037.3,030.4,9.9,0000.0,0007.27,0001.85,0001.09
2023-10-21 12:37:00,SystemResetWarning,0829.7,5.01,000.00,028.8,027.2,000.0,037.3,030.4,10.0,0000.0,0006.47,0001.80,0001.07
2023-10-21 12:38:00,SystemResetWarning,0829.7,5.00,000.00,028.8,027.2,000.0,037.3,030.4,10.2,0000.0,0006.10,0001.73,0001.05
2023-10-21 12:39:00,SystemResetWarning,0829.7,5.00,000.00,028.8,027.3,000.0,037.3,030.4,10.1,0000.0,0006.33,0001.66,0001.03
2023-10-21 12:40:00,SystemResetWarning,0829.7,5.00,000.00,028.8,027.3,000.0,037.3,030.4,10.1,0000.0,0006.04,0001.64,0001.02
2023-10-21 12:41:00,SystemResetWarning,0829.7,5.00,000.00,028.8,027.3,000.0,037.3,030.4,10.1,0000.0,0006.19,0001.64,0001.00
2023-10-21 12:42:00,SystemResetWarning,0829.7,5.00,000.00,028.8,027.3,000.0,037.2,030.4,10.1,0000.0,0005.89,0001.62,0000.98
2023-10-21 12:43:00,SystemResetWarning,0829.7,5.00,000.00,028.8,027.3,000.0,037.2,030.4,10.1,0000.0,0005.13,0001.58,0000.98
2023-10-21 12:44:00,SystemResetWarning,0829.7,5.00,000.00,028.8,027.3,000.0,037.2,030.4,10.1,0000.0,0004.80,0001.50,0000.97
2023-10-21 12:45:00,SystemResetWarning,0829.7,5.01,000.00,028.8,027.3,000.0,037.2,030.5,10.0,0000.0,0004.93,0001.51,0000.98
2023-10-21 12:46:00,SystemResetWarning,0829.7,5.00,000.00,028.8,027.3,000.0,037.3,030.4,9.9,0000.0,0006.64,0001.55,0000.98
2023-10-21 12:47:00,SystemResetWarning,0829.7,5.00,000.00,028.8,027.3,000.0,037.3,030.4,9.7,0000.0,0007.10,0001.56,0000.98
2023-10-21 12:48:00,SystemResetWarning,0829.7,5.00,000.00,028.8,027.3,000.0,037.3,030.5,9.7,0000.0,0006.92,0001.56,0000.98
2023-10-21 12:49:00,SystemResetWarning,0829.7,5.00,000.00,028.8,027.3,000.0,037.3,030.4,9.6,0000.0,0006.55,0001.53,0000.97
2023-10-21 12:50:00,SystemResetWarning,0829.7,5.00,000.00,028.8,027.3,000.0,037.3,030.4,9.7,0000.0,0006.13,0001.53,0000.96
2023-10-21 12:51:00,SystemResetWarning,0829.7,5.00,000.00,028.8,027.3,000.0,037.3,030.4,9.7,0000.0,0006.03,0001.54,0000.97
2023-10-21 12:52:00,SystemResetWarning,0829.7,5.00,000.00,028.8,027.3,000.0,037.3,030.4,9.9,0000.0,0005.96,0001.54,0000.97
2023-10-21 12:53:00,SystemResetWarning,0829.7,5.00,000.00,028.8,027.3,000.0,037.3,030.4,9.9,0000.0,0005.37,0001.55,0000.98
2023-10-21 12:54:00,SystemResetWarning,0829.7,4.99,000.00,028.8,027.3,000.0,037.3,030.4,9.7,0000.0,0005.39,0001.54,0000.97
2023-10-21 12:55:00,SystemResetWarning,0829.7,5.00,000.00,028.8,027.3,000.0,037.3,030.4,9.6,0000.0,0005.69,0001.62,0000.97
2023-10-21 12:56:00,SystemResetWarning,0829.6,5.00,000.00,028.8,027.2,000.0,037.3,030.4,9.7,0000.0,0005.77,0001.65,0000.97
2023-10-21 12:57:00,SystemResetWarning,0829.7,5.00,000.00,028.8,027.2,000.0,037.3,030.4,9.7,0000.0,0004.29,0001.64,0000.97
2023-10-21 12:58:00,SystemResetWarning,0829.7,5.00,000.00,028.8,027.2,000.0,037.3,030.4,9.7,0000.0,0003.28,0001.66,0000.99
2023-10-21 12:59:00,SystemResetWarning,0829.7,5.00,000.00,028.8,027.2,000.0,037.3,030.4,9.7,0000.0,0003.35,0001.68,0001.00
